User: anonymous
Location: Lone Wolf Observatory
(41.0360°N, 89.2260°W)
Time: 21:03:01
(UTC-05:00)
Language:

Cosmos 1378 Rocket - Orbit

View from above orbital plane
View from above orbital plane
View from above satellite
View from above satellite

Ground track
Ground track

The orbit data is extracted from the following two-line orbital elements,

1 13272U 82059B   14261.75786472  .00000407  00000-0  45767-4 0  8497
2 13272 082.5144 000.8332 0019146 183.0105 177.0998 14.84061151743181
Epoch (UTC): 18 September 2014 18:11:19
Eccentricity: 0.0019146
inclination: 82.5144°
perigee height: 603 km
apogee height: 630 km
right ascension of ascending node: 0.8332°
argument of perigee: 183.0105°
revolutions per day: 14.84061151
mean anomaly at epoch: 177.0998°
orbit number at epoch: 74318

The dashed part of the orbit path shows where the satellite is in the earth's shadow,  

DLR